Location: Atlantic Beach
(40.5890°N, 73.7290°W)
Time: 08:40:40
(UTC+00:00)

Envisat - Pass Details

Date: 25 January 2021
Orbit: 764 x 766 km, 98.1° (Epoch: 24 February)

Event Time Altitude Azimuth Distance (km) Brightness Sun altitude
Rises 22:29:30 0° 188° (S) 3,217 6.6 -5.2°
Reaches altitude 10° 22:31:58 10° 197° (SSW) 2,296 6.0 -5.6°
Maximum altitude 22:36:35 35° 263° (W) 1,214 4.9 -6.5°
Drops below altitude 10° 22:41:15 10° 329° (NNW) 2,310 5.7 -7.3°
Sets 22:43:45 0° 338° (NNW) 3,241 6.3 -7.7°
